Location: Salillas
(41.9950°N, 0.2228°W)
Time: 21:20:04
(UTC+00:00)

ARGOS Delta rocket - Pass Details

Date: 29 March 2020
Orbit: 634 x 839 km, 96.4° (Epoch: 30 May)

Event Time Altitude Azimuth Distance (km) Brightness Sun altitude
Rises 18:47:23 0° 148° (SSE) 3,161 6.8 -5.2°
Reaches altitude 10° 18:49:42 10° 141° (SE) 2,273 6.0 -5.6°
Maximum altitude 18:54:26 42° 72° (ENE) 1,103 4.5 -6.5°
Drops below altitude 10° 18:59:26 10° 3° (N) 2,402 6.7 -7.4°
Sets 19:01:56 0° 356° (N) 3,360 7.5 -7.9°
